Home   Weather   Camrose   Past weeks

Flag for Canada Past Weather in Camrose, Alberta, Canada — Yesterday and Last 2 Weeks

36 °F

Low clouds.

Feels Like: 26 °F
Forecast: 32 / 40 °F
Wind: 15 mph from Southeast

Location: Edmonton International

Current Time: Oct 24, 2016 at 6:36:07 AM

Latest Report: Oct 24, 2016 at 6:00 AM

Visibility: 10 mi

Pressure: 30.17 "Hg (27.51 "Hg at 744m altitude)

Humidity: 93%

Dew Point: 34 °F

Location of CamroseLocation

Past Weather in Camrose — Graph


Camrose Temperature Yesterday

Maximum temperature yesterday: 48 °F (at 1:00 PM)
Minimum temperature yesterday: 21 °F (at 5:00 AM)
Average temperature yesterday: 36 °F

High & Low Weather Summary for the Past Weeks

High52 °F (Oct 20, 4:00 PM)100% (Oct 10, 1:00 AM)30.42 "Hg (Oct 10, 1:00 AM)
Low14 °F (Oct 12, 7:00 AM)38% (Oct 21, 4:00 PM)29.37 "Hg (Oct 16, 10:00 AM)
Average32 °F83%29.92 "Hg
* Reported Oct 9 5:00 AM — Oct 24 5:00 AM, Camrose, Weather by CustomWeather, © 2016

Note: Actual official high and low records may vary slightly from our data, if they occured in-between our weather recording intervals... More about our weather records


Camrose Weather History for the Previous 24 Hours

Scroll right to see more
Time TempWeatherWind HumidityBarometerVisibility
5:00 AM
Mon, Oct 24
36 °FLow clouds.12 mph93%30.17 "Hg12 mi
4:50 AM36 °FLow clouds.10 mph93%30.17 "Hg12 mi
4:00 AM36 °FLow clouds.12 mph93%30.16 "Hg10 mi
3:00 AM37 °FLow clouds.13 mph87%30.17 "Hg15 mi
2:00 AM36 °FLow clouds.12 mph93%30.17 "Hg12 mi
1:00 AM36 °FLow clouds.13 mph93%30.16 "Hg12 mi
12:00 AM36 °FLow clouds.16 mph93%30.16 "Hg12 mi
11:45 PM
Sun, Oct 23
36 °FPassing clouds.16 mph93%30.17 "Hg15 mi
11:01 PM36 °FPassing clouds.14 mph87%30.16 "Hg15 mi
10:00 PM37 °FPassing clouds.14 mph81%30.15 "Hg15 mi
9:00 PM41 °FPassing clouds.14 mph70%30.15 "Hg15 mi
8:00 PM43 °FPartly cloudy.13 mph66%30.14 "Hg15 mi
7:00 PM45 °FPassing clouds.13 mph61%30.14 "Hg15 mi
6:00 PM46 °FPartly sunny.16 mph57%30.13 "Hg15 mi
5:00 PM48 °FBroken clouds.16 mph54%30.12 "Hg15 mi
4:00 PM48 °FPartly sunny.16 mph54%30.12 "Hg15 mi
3:00 PM48 °FPartly sunny.18 mph50%30.12 "Hg15 mi
2:00 PM48 °FBroken clouds.18 mph50%30.12 "Hg15 mi
1:00 PM48 °FPartly sunny.14 mph50%30.14 "Hg15 mi
12:00 PM46 °FBroken clouds.13 mph53%30.15 "Hg15 mi
11:00 AM41 °FPartly sunny.6 mph70%30.16 "Hg15 mi
10:00 AM34 °FBroken clouds.8 mph81%30.18 "Hg15 mi
9:00 AM27 °FBroken clouds.6 mph93%30.18 "Hg15 mi
8:00 AM28 °FPassing clouds.8 mph86%30.17 "Hg15 mi
7:00 AM25 °FPassing clouds.8 mph93%30.16 "Hg15 mi
6:00 AM21 °FPassing clouds.6 mph93%30.15 "Hg15 mi
Weather by CustomWeather, © 2016

See weather overviewHow to use our weather pages